Flag for Sweden Weather past 2 weeks in Gothenburg, Sweden

Now
48 °F

Passing clouds.


Feels Like: 43 °F
Forecast: 40 / 49 °F
Wind: 12 mph from West

Location: Gothenburg / Save

Current Time: Apr 28, 2015 at 5:18:10 PM

Latest Report: Apr 28, 2015 at 4:50 PM


Visibility: N/A

Pressure: 29.86 "Hg

Humidity: 58%

Dew point: 34 °F

Location of GothenburgLocation

Historic Weather in Gothenburg — Graph

°F

Gothenburg temperature yesterday

Maximum temperature yesterday: 48 °F (at 10:20 AM)
Minimum temperature yesterday: 32 °F (at 3:50 AM)
Average temperature yesterday: 43 °F

Past Weeks' High & Low Weather Summary

 TemperatureHumidityPressure
High63 °F (Apr 20, 12:50 PM)100% (Apr 14, 2:20 PM)30.33 "Hg (Apr 14, 2:20 PM)
Low28 °F (Apr 18, 4:50 AM)22% (Apr 20, 12:50 PM)29.50 "Hg (Apr 15, 4:50 PM)
Average46 °F73%29.91 "Hg
* Reported Apr 13 4:20 PM — Apr 28 4:20 PM, Gothenburg, Weather by CustomWeather, © 2015

Note: Actual official high and low records may vary slightly from our data, if they occured in-between our weather recording intervals... More about our weather records

Advertising

Gothenburg weather history for previous 24 hours

 ConditionsComfort  
Time TempWeatherWind HumidityBarometerVisibility
4:20 PM
Tue, Apr 28
48 °FPassing clouds.12 mph62%29.86 "HgN/A
3:50 PM48 °FPassing clouds.12 mph62%29.86 "HgN/A
3:20 PM48 °FPassing clouds.10 mph62%29.86 "HgN/A
2:50 PM48 °FPassing clouds.14 mph66%29.86 "HgN/A
2:20 PM48 °FPassing clouds.13 mph62%29.83 "HgN/A
1:50 PM48 °FPassing clouds.14 mph58%29.83 "HgN/A
1:20 PM48 °FPassing clouds.10 mph58%29.83 "HgN/A
12:50 PM48 °FPassing clouds.12 mph58%29.83 "HgN/A
12:20 PM48 °FPassing clouds.12 mph62%29.83 "HgN/A
11:57 AM48 °FPassing clouds.10 mph58%29.80 "HgN/A
11:20 AM46 °FPassing clouds.8 mph66%29.80 "HgN/A
10:50 AM46 °FPassing clouds.8 mph71%29.80 "HgN/A
10:20 AM46 °FPassing clouds.9 mph71%29.80 "HgN/A
9:50 AM46 °FPassing clouds.9 mph71%29.80 "HgN/A
9:20 AM46 °FPassing clouds.8 mph66%29.77 "HgN/A
8:50 AM45 °FScattered clouds.7 mph76%29.77 "HgN/A
8:20 AM45 °FScattered clouds.7 mph76%29.74 "HgN/A
7:50 AM45 °FPassing clouds.6 mph76%29.74 "HgN/A
7:20 AM43 °FPassing clouds.3 mph81%29.74 "HgN/A
6:50 AM39 °FScattered clouds.5 mph87%29.74 "HgN/A
6:20 AM39 °FPassing clouds.5 mph81%29.71 "HgN/A
5:20 AM41 °FPassing clouds.6 mph76%29.71 "HgN/A
4:50 AM43 °FPassing clouds.6 mph71%29.71 "HgN/A
4:20 AM43 °FPartly cloudy.7 mph81%29.71 "HgN/A
3:50 AM41 °FPassing clouds.8 mph81%29.71 "HgN/A
3:20 AM39 °FPassing clouds.6 mph81%29.71 "HgN/A
2:50 AM41 °FPassing clouds.7 mph76%29.71 "HgN/A
2:20 AM43 °FPassing clouds.9 mph76%29.71 "HgN/A
1:50 AM43 °FPassing clouds.9 mph76%29.71 "HgN/A
1:20 AM43 °FPassing clouds.10 mph71%29.71 "HgN/A
12:50 AM43 °FPassing clouds.12 mph76%29.71 "HgN/A
12:20 AM43 °FPartly cloudy.10 mph76%29.71 "HgN/A
11:50 PM
Mon, Apr 27
43 °FPassing clouds.8 mph71%29.71 "HgN/A
11:20 PM43 °FClear.13 mph71%29.71 "Hg10 mi
10:50 PM43 °FClear.12 mph71%29.71 "Hg10 mi
10:20 PM45 °FPassing clouds.12 mph66%29.71 "HgN/A
9:50 PM43 °FPassing clouds.5 mph66%29.71 "HgN/A
9:20 PM43 °FPassing clouds.5 mph66%29.71 "HgN/A
8:50 PM43 °FPassing clouds.5 mph71%29.71 "HgN/A
8:20 PM45 °FPassing clouds.6 mph66%29.71 "HgN/A
7:50 PM45 °FScattered clouds.12 mph66%29.68 "HgN/A
7:20 PM46 °FPassing clouds.9 mph62%29.68 "HgN/A
6:50 PM46 °FScattered clouds.9 mph66%29.68 "HgN/A
6:26 PM46 °FPassing clouds.13 mph66%29.68 "HgN/A
5:50 PM46 °FScattered showers. Scattered clouds.14 mph66%29.68 "HgN/A
5:20 PM46 °FScattered clouds.10 mph66%29.68 "HgN/A
Weather by CustomWeather, © 2015

See weather overviewHow to use our weather pages